sat.trackr.live / text

‹ back to catalog

STARLINK-5861

NORAD 55921 · 2023-037H

PAYLOAD ACTIVE UNKNOWN

§ Identity

Operator
Country
US
Launch date
2023-03-17
Launch site
AFWTR
Launch vehicle
Mass (kg)
RCS (m²)

Purposes: comms

External: N2YO · Heavens-Above · Gunter

§ Orbital elements

Epoch: 2026-05-25T03:57:07.659072Z

Period
96.11 min
Inclination
69.9993°
Eccentricity
0.0003251
Mean motion
14.98333546 rev/d
Perigee alt
569.8 km
Apogee alt
574.3 km
Semi-major
6,950.2 km
B*
-6.2957e-5
RAAN
111.5871°
Arg perigee
265.4358°
Mean anomaly
94.6429°
Rev number
17,494

§ Raw data

STARLINK-58611 55921U 23037H   26145.16467198 -.00000844  00000+0 -62957-4 0  99972 55921  69.9993 111.5871 0003251 265.4358  94.6429 14.98333546174942

JSON: /api/v1/satellites/55921 · /tle

For live sub-satellite position, see the globe view (requires WebGL).

§ Visibility from observer

Set your observer location to see the next 7 days of passes ≥ 10°. The values pass through the URL so the page stays shareable.

No JS? Fill the form by hand. The geolocation button needs JavaScript.